Location: Kervinic
(48.4279°N, 4.7373°W)
Time: 05:33:23
(UTC+00:00)

STARLINK-1143 - Pass Details

Date: 09 April 2020
Orbit: 549 x 551 km, 53.0° (Epoch: 01 June)

Event Time Altitude Azimuth Distance (km) Brightness Sun altitude
Rises 20:05:51 0° 294° (WNW) 2,779 9.5 -10.8°
Reaches altitude 10° 20:08:07 10° 297° (WNW) 1,881 7.9 -11.2°
Maximum altitude 20:12:24 68° 21° (NNE) 619 3.9 -11.8°
Enters shadow 20:15:31 18° 102° (ESE) 1,441 5.1 -12.3°
